Regional Weather Roundup
Issued by NWS

Home | Current Version | Previous Version | Text Only | Print | Product List | Glossary Off
Versions: 1 2 3 4 5 6 7 8 9 10 11 12 13 14 15 16 17 18 19 20 21 22 23 24 25 26 27 28 29 30 31 32 33 34 35 36 37 38 39 40 41 42 43 44 45 46 47 48 49 50

000
ASUS43 KLOT 040712
RWRIL

ILLINOIS REGIONAL WEATHER ROUNDUP
NATIONAL WEATHER SERVICE CHICAGO/ROMEOVILLE IL
200 AM CDT SAT JUL 04 2015

NOTE: "FAIR" INDICATES FEW OR NO CLOUDS BELOW 12,000 FEET WITH NO
SIGNIFICANT WEATHER AND/OR OBSTRUCTIONS TO VISIBILITY.

* THESE STATIONS ARE NOT UNDER NWS QUALITY CONTROL. THEY ALSO MAY NOT
  REPORT WEATHER SUCH AS PRECIPITATION OR FOG.

ILZ001-002-007-009-015-016-024-040800-
NORTHWEST ILLINOIS

CITY           SKY/WX    TMP DP  RH WIND       PRES   REMARKS
MOLINE         CLEAR     60  57  89 CALM      29.97S FOG
STERLING*      CLEAR     57  55  94 CALM      29.97S
SAVANNA*       CLEAR     56  55  93 CALM      29.97R
$$

ILZ003-004-008-010-011-017-018-040800-
NORTH CENTRAL ILLINOIS

CITY           SKY/WX    TMP DP  RH WIND       PRES   REMARKS
ROCKFORD       CLEAR     60  57  89 CALM      29.97S
FREEPORT*      CLEAR     55  53  94 CALM      29.98S
ROCHELLE*      CLEAR     56  55  98 CALM      29.97S FOG
DE KALB*       CLEAR     58  55  88 CALM      29.97S
PERU*          CLEAR     62  57  83 CALM      29.97F
$$

ILZ005-006-012>014-019>023-040800-
NORTHEAST ILLINOIS

CITY           SKY/WX    TMP DP  RH WIND       PRES   REMARKS
CHICAGO-OHARE  PTCLDY    62  54  74 CALM      29.95F
CHICAGO-MIDWAY MOCLDY    65  56  72 CALM      29.95S
AURORA         CLEAR     59  55  87 CALM      29.96F
LANSING*       CLEAR     57  54  89 CALM      29.96S FOG
JOLIET*        CLEAR     58  58  97 CALM      29.96S FOG
WAUKEGAN       CLEAR     56  53  90 CALM      29.94F
DUPAGE AIRPORT CLEAR     58  55  90 CALM      29.95F
KANKAKEE*      CLEAR     60  59  97 CALM      29.97S
WHEELING       CLEAR     59  54  83 CALM      29.96F
MORRIS*        CLEAR     61  57  87 CALM      29.93F
ROMEOVILLE*    CLEAR     61  55  79 W3        29.96S
NORTHERLY ISL    N/A     66  54  65 W3          N/A
$$

LMZ740>746-040800-
SOUTHERN LAKE MICHIGAN

STATION/POSITION SKY/WX   TEMP    WIND        PRES    VSBY  WAVE
                          AIR SEA DIR/SP/G                  HT/PER
                          (F)     (DEG/KT/KT) (MB)    (MI)  (FT/S)
HARRISON CRIB              65     200/  2/  2   N/A
BURNHAM HARBOR             65     270/  3/  5   N/A
CALUMET HARBOR             62     270/  1/  1   N/A
BURNS HARBOR               62     210/  3/  5 1014.9R
MICHIGAN CITY              60     140/  2/  3   N/A
MICHIGAN CITY 6N           62 63  240/  4/  6   N/A           1
ST. JOSEPH                 62 62                N/A           0
$$

ILZ025>027-034>036-040-047-049-050-058-095>099-040800-
WEST-CENTRAL ILLINOIS

CITY           SKY/WX    TMP DP  RH WIND       PRES   REMARKS
QUINCY         CLEAR     66  60  81 NE3       29.98S
GALESBURG*     CLEAR     58  57  96 CALM      29.98S
MACOMB*        CLEAR     59  58  99 CALM      30.00S FOG
JACKSONVILLE*  CLEAR     65  64  96 CALM      29.97S FOG
PITTSFIELD*    CLEAR     65  62  91 CALM      29.99S
$$

ILZ028>032-037-038-041>044-048-051>054-059>061-040800-
CENTRAL ILLINOIS

CITY           SKY/WX    TMP DP  RH WIND       PRES   REMARKS
PONTIAC        CLEAR     60  59  97 CALM      29.98S
BLOOMINGTON    CLEAR     65  60  83 CALM      29.98S
DECATUR        CLEAR     62  60  93 CALM      29.97R
PEORIA         CLEAR     63  58  83 CALM      29.97S HAZE
LACON*         CLEAR     58  57  96 CALM      29.96S FOG
LINCOLN*       PTCLDY    63  60  91 CALM      29.97S
SPRINGFIELD    FOG       63  61  93 CALM      29.97S VSB 1/2
TAYLORVILLE    CLEAR     59  59 100 CALM      29.97S FOG
$$

ILZ033-039-045-046-055>057-062-063-040800-
EAST-CENTRAL ILLINOIS

CITY           SKY/WX    TMP DP  RH WIND       PRES   REMARKS
CHAMPAIGN      CLEAR     60  58  92 N3        29.97S
DANVILLE*      CLEAR     59  58  96 NE3       29.93F
RANTOUL*       CLEAR     64  60  87 CALM      29.96S
MATTOON        CLEAR     62  61  96 W3        29.95S FOG
PARIS*         CLEAR     61  60  97 CALM      29.96S FOG
$$

ILZ079-100>102-040800-
SOUTHWEST ILLINOIS

CITY           SKY/WX    TMP DP  RH WIND       PRES   REMARKS
ALTON          CLEAR     66  66 100 CALM      29.96S FOG
BELLEVILLE     CLEAR     68  68 100 N3        29.93F
CAHOKIA*       CLEAR     68  66  93 CALM      29.95S FOG
SPARTA*        PTCLDY    69  67  95 N3        29.95S
$$

ILZ064>066-069>071-074>076-080>082-084>086-088>090-092>094-040800-
SOUTH-CENTRAL ILLINOIS

CITY           SKY/WX    TMP DP  RH WIND       PRES   REMARKS
CARBONDALE     CLEAR     69  67  93 MISG      29.92S FOG
CAIRO*         PTCLDY    71  71 100 CALM      29.90F FOG
EFFINGHAM*     CLEAR     65  62  89 CALM      29.97S FOG
MARION         CLEAR     68  66  94 CALM      29.93S FOG
MT. VERNON     CLEAR     66  61  82 N3        29.94S
CENTRALIA*     CLEAR     66  64  92 N3        29.95S FOG
SALEM*         CLEAR     69  65  90 CALM      29.95S FOG
METROPOLIS*      N/A     68  68 100 CALM      29.92S FOG
$$

ILZ067-068-072-073-078-083-087-091-040800-
SOUTHEAST ILLINOIS

CITY           SKY/WX    TMP DP  RH WIND       PRES   REMARKS
LAWRENCEVILLE  CLEAR     66  65  96 N6        29.93S FOG
FLORA*         CLEAR     66  65  97 N5        29.95R FOG
FAIRFIELD*     CLEAR     68  67  99 CALM      29.92S FOG
HARRISBURG*    CLEAR     68  68  99 CALM      29.93S FOG
ROBINSON*      CLEAR     66  65  95 N3        29.94S FOG
CARMI*         CLEAR     67  63  85 N3        29.92S FOG
$$

ABBREVIATIONS USED IN REMARKS
   TC - TEMPERATURE IN CELSIUS
  WCI - WIND CHILL INDEX
   HX - HEAT INDEX
  VSB - VISIBILITY
$$




USA.gov is the U.S. government's official web portal to all federal, state and local government web resources and services.